Location: �chenoz-la-M�line
(47.6009°N, 6.1354°E)
Time: 22:36:27
(UTC+00:00)

STARLINK-2097 - Pass Details

Date: 09 May 2021
Orbit: 546 x 548 km, 53.1° (Epoch: 16 June)

Event Time Altitude Azimuth Distance (km) Brightness Sun altitude
Rises 20:00:02 0° 295° (WNW) 2,716 8.9 -9.4°
Reaches altitude 10° 20:02:19 10° 300° (WNW) 1,821 7.8 -9.7°
Maximum altitude 20:06:22 52° 17° (NNE) 686 4.3 -10.3°
Drops below altitude 10° 20:10:25 10° 95° (E) 1,818 5.8 -10.8°
Enters shadow 20:10:26 10° 95° (E) 1,825 5.8 -10.8°
